{"data":{"norad_id":67773,"epoch":"2026-09-20T21:48:57.818592Z","epoch_age_seconds":53858,"freshness":"FRESH","line1":"1 67773U 26030K   26263.90900253  .00001834  00000+0  26946-3 0  9993","line2":"2 67773  51.9066  74.9497 0000943 112.9708 247.1354 14.79935134 34013","mean_motion":14.79935134,"eccentricity":9.43e-5,"inclination_deg":51.9066,"raan_deg":74.9497,"arg_perigee_deg":112.9708,"mean_anomaly_deg":247.1354,"bstar":0.00026946,"rev_number":3401,"period_min":97.301561866968,"perigee_km":628.86806978022,"apogee_km":630.18971556758,"semimajor_km":7007.6658926739,"source":"CELESTRAK","updated_at":"2026-09-21T09:00:16.829480Z"}}